Domov               UVHVVR             MKGP            O straneh              
ZDRAVSTVENO VARSTVO RASTLIN
  MREŽA AGROMET. POSTAJ
 ► PROGNOSTIČNA OBVESTILA
AGROMETEOROLOŠKI PODATKI -
ARSO
OBVLADOVANJE TVEGANJ ZARADI
NEUGODNIH VREMENSKIH RAZMER
  ► NARAVNE NESREČE
  ► SUŠA/MOČA
  ► NAMAKANJE
  ► ŽLED (gozdarstvo)
KARTOGRAFSKI PRIKAZI
SPLETNE POVEZAVE
PROJEKTI IN PUBLIKACIJE

AGROMETEOROLOŠKA MREŽA: VREMENSKE POSTAJE IN FENOLOŠKA OPAZOVANJA

Pregled podatkov za lokacijo Radlje ob Dravi, meteorološka postaja 857248

Pregled senzorjev na lokaciji

ID Ime Zadnja
vrednost
Datum
zadnje
spremembe
Tip
senzorja
3912 Temperatura 2 m (°C) -0,17 °C 16.12.2017 19:00 50YA
3913 Relativna vlaga 2 m (% RH) 100 % RH 16.12.2017 19:00 50YA
3914 Omočenost lista (U) 0 U 16.12.2017 19:00 A730WET
3915 Hitrost vetra (km/h) 0,58 km/h 16.12.2017 19:00 566.2S-176 (200km/h)
3916 Padavine (mm) 0 mm 16.12.2017 19:00 Rain-O-Matic
3917 Smer vetra (°) 120,57 ° 16.12.2017 19:00 566.2S-130

Pregled podatkov zadnjih 24 ur

Zap.
št.
Datum in čas Radlje ob Dravi
Hitrost
vetra
Omočenost
lista
Padavine Relativna
vlaga
2
m
Smer
vetra
Temperatura
2
m
0 16.12.2017 19:00 0,58 0 0 100 120,57 -0,17
1 16.12.2017 18:30 0,47 0 0 100 43,81 0,1
2 16.12.2017 18:00 0,47 0 0 100 43,81 0,33
3 16.12.2017 17:30 0,49 0 0 99,87 43,83 0,72
4 16.12.2017 17:00 0,47 0 0 98,09 111,49 1,52
5 16.12.2017 16:30 0,74 0 0 92,99 111,49 2,68
6 16.12.2017 16:00 0,65 0 0 91,15 57,99 3,13
7 16.12.2017 15:30 0,67 0 0 89,17 24,25 3,6
8 16.12.2017 15:00 0,98 0 0 86,97 17,69 3,69
9 16.12.2017 14:30 0,94 0 0 84,62 316,66 4,19
10 16.12.2017 14:00 1,49 0 0 83,61 335,84 4,63
11 16.12.2017 13:30 1,71 0 0 85,98 53,59 4,65
12 16.12.2017 13:00 1,09 0 0 87,89 337,4 4,04
13 16.12.2017 12:30 1,29 0 0 88,89 8,23 4,1
14 16.12.2017 12:00 0,85 0 0 90,71 16,86 3,82
15 16.12.2017 11:30 0,69 0 0 92,02 227,06 3,6
16 16.12.2017 11:00 0,63 0 0 92,2 243,76 3,44
17 16.12.2017 10:30 0,56 0 0 98,51 156,45 2,74
18 16.12.2017 10:00 0,47 0 0 100 175,6 1,87
19 16.12.2017 09:30 0,47 0 0 100 256,34 1,45
20 16.12.2017 09:00 0,47 0 0 100 306,22 1,1
21 16.12.2017 08:30 0,47 0 0 100 306,22 0,95
22 16.12.2017 08:00 0,47 0 0 100 306,22 0,88
23 16.12.2017 07:30 0,47 0 0 100 306,22 0,82
24 16.12.2017 07:00 0,47 0 0 100 306,23 0,84
25 16.12.2017 06:30 0,48 0 0 100 306,21 0,89
26 16.12.2017 06:00 0,47 0 0 100 306,23 0,97
27 16.12.2017 05:30 0,47 0 0 100 306,23 0,95
28 16.12.2017 05:00 0,47 0 0 100 306,23 0,95
29 16.12.2017 04:30 0,47 0 0 100 306,23 0,87
30 16.12.2017 04:00 0,47 0 0 100 306,66 0,94
31 16.12.2017 03:30 0,48 0 0 100 306,66 1,06
32 16.12.2017 03:00 0,52 0 0,2 100 306,55 1,08
33 16.12.2017 02:30 0,81 0 0 100 271,61 1,03
34 16.12.2017 02:00 0,47 0 0 100 306,29 1,04
35 16.12.2017 01:30 0,48 0 0 100 306,24 1,03
36 16.12.2017 01:00 0,47 0,2 100 280,67 1,1
37 16.12.2017 00:30 0,7 0 0 100 269,6 1,16
38 16.12.2017 00:00 0,6 0 0 100 21,14 1,18
39 15.12.2017 23:30 0,47 0 0 100 50,37 1,1
40 15.12.2017 23:00 0,56 0,2 100 50,37 1,13
41 15.12.2017 22:30 0,77 0,2 100 44,48 1,09
42 15.12.2017 22:00 0,52 0,6 100 50,21 1,27
43 15.12.2017 21:30 0,51 0,4 99,49 50,2 1,57
44 15.12.2017 21:00 0,81 0,4 97,1 85,05 1,97
45 15.12.2017 20:30 1,14 0,4 95,73 94,21 2,2
46 15.12.2017 20:00 1,25 0,6 96,94 121,74 2,43
© 2011 Ministrstvo za kmetijstvo, gozdarstvo in prehrano. Vse pravice pridržane.